SCP
0 0 0 0 0 0 0 0 0 0 0 0 0 0 0 0 0 0 0 0 0 0 0 0 0 0 0 0 0 0 0 0
0 0 0 0 0 0 0 0 0 0 0 0 0 0 0 0 0 0 0 0 0 0 0 0 0 0 0 0 0 0 0 0
0 0 0 0 0 0 0 0 0 0 0 0 0 0 0 0 0 0 0 0 0 0 0 0 0 0 0 0 0 0 0 0
0 0 0 0 0 0 0 0 0 0 0 0 0 0 0 0 0 0 0 0 0 0 0 0 0 0 0 0 0 0 0 0
0 0 0 0 0 0 0 0 0 0 0 0 0 0 0 0 0 0 0 0 0 0 0 0 0 0 0 0 0 0 0 0
0 0 0 0 0 0 0 0 0 0 0 0 0 0 0 0 0 0 0 0 0 0 0 0 0 0 0 0 0 0 0 0
0 0 0 0 0 0 0 0 0 0 0 0 0 0 0 0 0 0 0 0 0 0 0 0 0 0 0 0 0 0 0 0
0 0 0 0 0 0 0 0 0 0 0 0 0 0 0 0 0 0 0 0 0 0 0 0 0 0 0 0 0 0 0 -0
0 0 0 0 0 0 0 0 0 0 0 0 0 0 0 0 0 0 0 0 0 0 0 0 0 0 0 0 0 0 0 0
0 0 0 0 0 0 0 0 0 0 0 0 0 0 0 0 0 0 0 0 0 0 0 0 0 0 0 0 0 0 0 0
0 0 0 0 0 0 0 0 0 0 0 0 0 0 0 0 0 0 0 0 0 0 0 0 0 0 0 0 0 0 -0 0
0 0 0 0 0 0 0 0 0 0 0 0 0 0 0 0 0 0 0 0 0 0 0 0 0 0 0 0 0 0 -0 0
0 0 0 0 0 0 0 0 0 0 0 0 0 0 0 0 0 0 0 0 0 0 0 0 0 0 0 0 0 0 -0 -0
0 0 0 0 0 0 0 0 0 0 0 0 0 0 0 0 0 0 0 0 0 0 0 0 0 0 0 0 0 0 0 -0
0 0 0 0 0 0 0 0 0 0 0 0 0 0 0 0 0 0 0 0 0 0 0 0 0 0 0 0 0 0 0 0
0 0 0 0 0 0 0 0 0 0 0 0 0 0 0 0 0 0 0 0 0 0 0 0 0 0 0 0 0 0 0 0
0 0 0 0 0 0 0 0 0 0 0 0 0 0 0 0 0 0 0 0 0 0 0 0 0 0 0 0 0 0 0 0
0 0 0 0 0 0 0 0 0 0 0 0 0 0 0 0 0 0 0 0 0 0 0 0 0 0 0 0 0 0 0 0
0 0 0 0 0 0 0 0 0 0 0 0 0 0 0 0 0 0 0 0 0 0 0 0 0 0 0 0 0 0 0 0
0 0 0 0 0 0 0 0 0 0 0 0 0 0 0 0 0 0 0 0 0 0 0 0 0 0 0 0 0 0 0 0
Wind_Speed_500mb
66 56 48 40 32 23 16 13 15 19 23 27 31 35 39 44 46 47 45 43 38 29 26 26 27 31 35 35 37 41 44 38
69 58 50 43 35 26 18 13 14 17 20 22 28 33 38 43 46 47 47 45 39 32 22 22 24 27 33 33 33 39 43 42
71 62 57 49 39 29 20 15 15 16 16 19 26 31 36 41 44 45 46 45 41 35 26 19 20 23 27 32 31 35 42 46
73 69 62 53 43 32 24 17 14 13 11 16 23 30 37 42 44 45 46 45 41 36 30 21 19 22 25 27 27 29 33 39
79 74 65 56 46 34 26 19 14 10 9 13 21 29 36 42 43 45 45 44 41 36 30 22 18 23 28 28 24 27 28 32
89 81 71 62 52 40 30 22 16 8 4 10 20 27 34 38 41 43 44 43 40 34 29 23 18 28 35 30 24 26 26 29
92 84 78 69 56 43 34 26 17 10 4 7 16 23 30 34 37 40 41 41 38 35 31 26 23 34 36 29 26 28 25 29
100 93 83 70 57 45 36 28 21 14 7 4 12 19 26 32 34 36 39 41 40 38 33 27 23 35 38 28 24 24 27 27
97 93 81 68 58 49 41 30 25 20 13 4 7 16 23 27 31 33 36 39 42 42 39 29 24 34 37 30 23 21 24 26
93 90 81 72 64 54 45 36 31 25 18 8 5 13 19 22 26 29 32 36 41 43 42 38 30 35 42 36 25 21 21 20
89 83 79 76 67 57 48 40 36 29 22 13 7 10 14 18 22 26 30 34 36 38 41 43 38 37 45 45 35 26 23 17
76 80 83 78 69 60 50 41 39 34 27 18 11 8 11 15 19 24 26 28 31 34 37 42 47 43 47 46 44 36 28 20
75 83 85 80 70 61 50 48 43 37 31 22 14 10 9 11 14 18 20 23 27 31 36 41 46 53 49 49 44 36 29 19
74 82 86 80 69 61 55 53 48 43 35 27 19 12 8 7 10 12 16 21 27 32 37 42 46 59 54 59 49 37 29 15
79 88 91 80 69 59 55 54 50 45 39 32 24 16 10 4 5 9 13 17 26 32 36 39 47 56 57 60 56 44 30 10
83 91 88 82 75 65 58 55 53 48 42 35 28 21 15 8 2 8 13 18 25 30 33 37 43 44 44 54 58 46 32 19
85 87 86 81 74 67 62 58 55 53 47 39 32 25 17 10 3 3 8 13 16 21 26 30 30 31 38 50 57 47 32 18
85 85 83 79 72 66 65 62 58 51 47 42 34 26 18 11 5 2 6 9 11 15 20 23 28 30 36 43 50 43 27 18
82 82 82 75 68 65 65 63 58 53 46 39 33 29 22 17 13 8 5 6 9 11 14 19 23 25 28 33 34 39 35 27
79 82 80 73 68 69 67 64 62 59 53 45 38 32 25 18 14 9 6 5 6 10 13 14 17 21 23 28 34 40 42 35
Wind_Direction_500mb
208 210 211 217 224 232 243 269 306 326 335 343 350 346 345 349 346 345 344 343 340 331 316 325 340 352 359 8 11 15 18 15
207 209 212 216 221 230 238 262 299 319 336 345 351 345 349 351 349 349 350 349 350 349 331 322 330 339 355 7 9 15 19 19
206 208 210 214 219 224 234 253 285 313 337 347 352 347 352 356 354 355 355 354 357 358 349 334 330 338 353 2 9 13 17 18
205 209 211 214 216 219 228 245 277 308 331 350 352 349 358 1 358 359 359 358 360 1 358 349 339 345 350 357 6 13 15 17
205 209 212 214 216 217 224 238 264 289 316 358 352 356 3 5 1 2 2 1 2 3 4 358 347 351 348 350 358 7 8 13
208 208 210 211 213 213 218 232 251 250 301 7 356 3 10 8 3 5 3 5 6 5 6 8 359 8 359 344 350 356 4 7
212 210 211 210 210 212 214 226 238 222 209 20 4 11 13 10 8 7 7 10 10 10 11 14 17 21 5 351 348 352 355 1
217 213 210 209 207 208 211 220 221 204 178 37 11 20 18 15 15 10 12 15 18 19 16 17 18 21 10 360 350 349 350 356
217 212 209 207 201 204 208 215 207 196 174 128 27 32 26 21 18 17 18 19 21 25 24 19 15 19 5 359 352 345 348 353
221 213 206 202 200 203 204 208 199 191 171 160 89 49 35 24 24 21 23 25 24 25 25 27 17 19 9 359 355 344 341 350
217 210 204 199 199 200 202 205 194 186 173 170 138 77 52 34 30 26 26 30 27 25 24 24 21 21 13 5 358 346 339 345
213 207 202 199 197 196 199 199 189 186 176 175 154 107 71 50 39 34 28 29 28 26 25 23 22 25 16 7 358 356 341 339
202 201 198 197 195 194 195 193 187 185 178 177 164 141 99 70 55 42 34 25 29 28 27 26 22 24 18 7 3 358 338 333
200 196 194 193 194 193 193 192 185 186 181 177 175 167 128 87 61 44 32 24 30 30 28 25 21 22 7 7 4 2 354 331
193 194 191 190 192 193 195 190 186 185 183 184 180 172 158 120 54 35 31 20 25 26 29 25 24 23 2 7 9 16 18 52
194 194 193 190 190 190 193 189 186 187 188 186 180 182 181 167 73 17 16 25 17 19 21 20 25 18 6 9 12 15 27 48
196 194 192 191 190 191 190 189 192 190 189 187 187 185 186 178 180 12 18 24 14 9 12 20 19 14 13 13 13 14 28 30
196 194 193 192 192 193 192 190 193 193 190 189 188 186 183 183 186 329 348 357 10 2 6 13 17 18 17 16 14 16 23 37
196 193 194 193 194 195 192 192 192 190 193 194 189 190 190 194 194 199 222 302 341 352 357 6 14 18 18 22 17 26 33 44
194 194 194 195 196 196 194 194 193 192 193 194 195 196 197 201 211 217 236 280 316 342 350 355 360 11 16 16 18 29 32 37
Wind_Speed_850mb
66 56 48 40 32 23 16 13 15 19 23 27 31 35 39 44 46 47 45 43 38 29 26 26 27 31 35 35 37 41 44 38
69 58 50 43 35 26 18 13 14 17 20 22 28 33 38 43 46 47 47 45 39 32 22 22 24 27 33 33 33 39 43 42
71 62 57 49 39 29 20 15 15 16 16 19 26 31 36 41 44 45 46 45 41 35 26 19 20 23 27 32 31 35 42 46
73 69 62 53 43 32 24 17 14 13 11 16 23 30 37 42 44 45 46 45 41 36 30 21 19 22 25 27 27 29 33 39
79 74 65 56 46 34 26 19 14 10 9 13 21 29 36 42 43 45 45 44 41 36 30 22 18 23 28 28 24 27 28 32
89 81 71 62 52 40 30 22 16 8 4 10 20 27 34 38 41 43 44 43 40 34 29 23 18 28 35 30 24 26 26 29
92 84 78 69 56 43 34 26 17 10 4 7 16 23 30 34 37 40 41 41 38 35 31 26 23 34 36 29 26 28 25 29
100 93 83 70 57 45 36 28 21 14 7 4 12 19 26 32 34 36 39 41 40 38 33 27 23 35 38 28 24 24 27 27
97 93 81 68 58 49 41 30 25 20 13 4 7 16 23 27 31 33 36 39 42 42 39 29 24 34 37 30 23 21 24 26
93 90 81 72 64 54 45 36 31 25 18 8 5 13 19 22 26 29 32 36 41 43 42 38 30 35 42 36 25 21 21 20
89 83 79 76 67 57 48 40 36 29 22 13 7 10 14 18 22 26 30 34 36 38 41 43 38 37 45 45 35 26 23 17
76 80 83 78 69 60 50 41 39 34 27 18 11 8 11 15 19 24 26 28 31 34 37 42 47 43 47 46 44 36 28 20
75 83 85 80 70 61 50 48 43 37 31 22 14 10 9 11 14 18 20 23 27 31 36 41 46 53 49 49 44 36 29 19
74 82 86 80 69 61 55 53 48 43 35 27 19 12 8 7 10 12 16 21 27 32 37 42 46 59 54 59 49 37 29 15
79 88 91 80 69 59 55 54 50 45 39 32 24 16 10 4 5 9 13 17 26 32 36 39 47 56 57 60 56 44 30 10
83 91 88 82 75 65 58 55 53 48 42 35 28 21 15 8 2 8 13 18 25 30 33 37 43 44 44 54 58 46 32 19
85 87 86 81 74 67 62 58 55 53 47 39 32 25 17 10 3 3 8 13 16 21 26 30 30 31 38 50 57 47 32 18
85 85 83 79 72 66 65 62 58 51 47 42 34 26 18 11 5 2 6 9 11 15 20 23 28 30 36 43 50 43 27 18
82 82 82 75 68 65 65 63 58 53 46 39 33 29 22 17 13 8 5 6 9 11 14 19 23 25 28 33 34 39 35 27
79 82 80 73 68 69 67 64 62 59 53 45 38 32 25 18 14 9 6 5 6 10 13 14 17 21 23 28 34 40 42 35
Wind_Direction_850mb
208 210 211 217 224 232 243 269 306 326 335 343 350 346 345 349 346 345 344 343 340 331 316 325 340 352 359 8 11 15 18 15
207 209 212 216 221 230 238 262 299 319 336 345 351 345 349 351 349 349 350 349 350 349 331 322 330 339 355 7 9 15 19 19
206 208 210 214 219 224 234 253 285 313 337 347 352 347 352 356 354 355 355 354 357 358 349 334 330 338 353 2 9 13 17 18
205 209 211 214 216 219 228 245 277 308 331 350 352 349 358 1 358 359 359 358 360 1 358 349 339 345 350 357 6 13 15 17
205 209 212 214 216 217 224 238 264 289 316 358 352 356 3 5 1 2 2 1 2 3 4 358 347 351 348 350 358 7 8 13
208 208 210 211 213 213 218 232 251 250 301 7 356 3 10 8 3 5 3 5 6 5 6 8 359 8 359 344 350 356 4 7
212 210 211 210 210 212 214 226 238 222 209 20 4 11 13 10 8 7 7 10 10 10 11 14 17 21 5 351 348 352 355 1
217 213 210 209 207 208 211 220 221 204 178 37 11 20 18 15 15 10 12 15 18 19 16 17 18 21 10 360 350 349 350 356
217 212 209 207 201 204 208 215 207 196 174 128 27 32 26 21 18 17 18 19 21 25 24 19 15 19 5 359 352 345 348 353
221 213 206 202 200 203 204 208 199 191 171 160 89 49 35 24 24 21 23 25 24 25 25 27 17 19 9 359 355 344 341 350
217 210 204 199 199 200 202 205 194 186 173 170 138 77 52 34 30 26 26 30 27 25 24 24 21 21 13 5 358 346 339 345
213 207 202 199 197 196 199 199 189 186 176 175 154 107 71 50 39 34 28 29 28 26 25 23 22 25 16 7 358 356 341 339
202 201 198 197 195 194 195 193 187 185 178 177 164 141 99 70 55 42 34 25 29 28 27 26 22 24 18 7 3 358 338 333
200 196 194 193 194 193 193 192 185 186 181 177 175 167 128 87 61 44 32 24 30 30 28 25 21 22 7 7 4 2 354 331
193 194 191 190 192 193 195 190 186 185 183 184 180 172 158 120 54 35 31 20 25 26 29 25 24 23 2 7 9 16 18 52
194 194 193 190 190 190 193 189 186 187 188 186 180 182 181 167 73 17 16 25 17 19 21 20 25 18 6 9 12 15 27 48
196 194 192 191 190 191 190 189 192 190 189 187 187 185 186 178 180 12 18 24 14 9 12 20 19 14 13 13 13 14 28 30
196 194 193 192 192 193 192 190 193 193 190 189 188 186 183 183 186 329 348 357 10 2 6 13 17 18 17 16 14 16 23 37
196 193 194 193 194 195 192 192 192 190 193 194 189 190 190 194 194 199 222 302 341 352 357 6 14 18 18 22 17 26 33 44
194 194 194 195 196 196 194 194 193 192 193 194 195 196 197 201 211 217 236 280 316 342 350 355 360 11 16 16 18 29 32 37